EDT,Max TemperatureF,Mean TemperatureF,Min TemperatureF,Max Dew PointF,MeanDew PointF,Min DewpointF,Max Humidity, Mean Humidity, Min Humidity, Max Sea Level PressureIn, Mean Sea Level PressureIn, Min Sea Level PressureIn, Max VisibilityMiles, Mean VisibilityMiles, Min VisibilityMiles, Max Wind SpeedMPH, Mean Wind SpeedMPH, Max Gust SpeedMPH,PrecipitationIn, CloudCover, Events, WindDirDegrees
2013-4-1,46,37,28,41,23,16,82,59,36,30.15,30.01,29.80,10,10,10,23,12,29,0.00,4,,316
2013-4-2,44,33,21,20,16,14,74,53,32,30.30,30.23,30.16,10,10,10,21,7,26,0.00,1,,293
2013-4-3,47,36,25,16,14,11,60,45,30,30.45,30.38,30.30,10,10,10,18,5,24,0.00,2,,18
2013-4-4,54,42,30,17,15,11,53,36,18,30.38,30.17,30.01,10,10,10,14,7,17,0.00,5,,142
2013-4-5,57,45,32,30,24,17,59,46,32,30.17,30.07,29.99,10,10,9,18,8,24,0.00,1,,328
2013-4-6,63,49,35,34,26,21,59,44,29,30.25,30.10,29.89,10,10,10,21,13,25,T,5,,139
2013-4-7,74,64,54,44,39,34,66,47,28,29.99,29.91,29.82,10,10,10,26,14,35,T,6,,231
2013-4-8,72,63,54,53,51,47,93,73,53,29.99,29.93,29.87,10,10,10,29,12,37,0.00,8,,197
2013-4-9,80,68,55,58,54,52,86,63,39,30.06,29.98,29.91,10,10,7,30,12,39,0.00,4,,193
2013-4-10,82,71,59,64,59,55,93,72,51,29.94,29.88,29.79,10,10,5,26,14,35,0.07,8,Rain-Thunderstorm,206
2013-4-11,64,59,54,63,58,54,100,92,84,29.84,29.71,29.56,10,7,1,24,8,29,1.22,8,Rain,124
2013-4-12,57,47,37,57,41,31,100,83,65,29.94,29.69,29.51,10,8,2,25,16,31,0.15,8,Rain,261
2013-4-13,52,45,38,37,34,31,85,71,56,30.06,29.99,29.94,10,10,10,25,13,30,0.00,7,,263
2013-4-14,67,52,36,45,38,32,82,61,40,30.10,30.00,29.91,10,10,9,15,9,20,0.00,7,,131
2013-4-15,68,60,52,52,48,39,77,66,55,30.00,29.96,29.90,10,10,10,20,11,25,0.00,5,,181
2013-4-16,73,63,53,61,56,53,100,82,64,30.19,30.09,29.94,10,8,2,22,11,26,0.55,7,Rain-Thunderstorm,284
2013-4-17,72,61,50,65,56,48,96,87,78,30.24,30.15,29.99,10,7,1,20,9,23,0.27,7,Rain-Thunderstorm,75
2013-4-18,81,72,62,62,57,50,93,66,39,29.96,29.78,29.60,10,10,10,35,19,45,0.00,6,,182
2013-4-19,73,54,34,61,40,29,93,70,46,29.96,29.68,29.46,10,8,1,35,21,44,0.53,8,Rain,254
2013-4-20,47,40,33,34,29,24,96,71,45,30.44,30.18,29.96,10,9,0,25,12,33,0.04,5,Fog-Snow,279
2013-4-21,53,41,28,28,25,21,75,55,35,30.58,30.49,30.41,10,10,10,14,8,18,0.00,3,,84
2013-4-22,68,53,37,38,32,25,70,51,31,30.40,30.28,30.16,10,10,10,13,6,17,0.00,0,,114
2013-4-23,69,58,46,50,44,37,66,54,42,30.15,30.03,29.85,10,10,9,23,12,28,T,6,Rain,181
2013-4-24,65,50,35,56,42,33,100,78,56,30.24,29.93,29.78,10,6,1,24,12,31,0.77,7,Rain,291
2013-4-25,56,46,35,36,33,27,92,65,38,30.40,30.29,30.24,10,10,9,25,12,35,T,2,,243
2013-4-26,59,46,33,34,30,25,82,55,28,30.49,30.43,30.38,10,10,9,10,3,14,0.00,3,,147
2013-4-27,68,55,42,49,38,31,77,56,34,30.38,30.25,30.08,10,10,10,18,9,25,T,5,,134
2013-4-28,65,60,54,59,54,48,100,87,73,30.07,29.92,29.84,10,8,2,18,8,24,0.16,8,Rain,170
2013-4-29,63,58,52,55,54,51,100,86,72,30.01,29.96,29.89,10,8,5,12,6,14,T,7,,239
2013-4-30,75,61,47,55,51,46,100,73,46,30.08,30.03,29.99,10,6,1,13,7,17,0.00,1,,147